Home   Weather   Ankara   Past weeks
Flag for Turkey

Past Weather in Ankara, Turkey — Yesterday and Last 2 Weeks

Now
54 °F

Sunny.


Feels Like: 54 °F
Forecast: 79 / 53 °F
Wind: No wind

Location: Ankara / Guvercin Lik

Current Time: Oct 15, 2019 at 9:41:19 am

Latest Report: Oct 15, 2019 at 8:50 am


Visibility: 10 mi

Pressure: 30.24 "Hg (27.24 "Hg at 871m altitude)

Humidity: 47%

Dew Point: 34 °F

Location of AnkaraLocation

Past Weather in Ankara — Graph

°F

Ankara Temperature Yesterday

Maximum temperature yesterday: 81 °F (at 2:50 pm)
Minimum temperature yesterday: 37 °F (at 6:50 am)
Average temperature yesterday: 58 °F

High & Low Weather Summary for the Past Weeks

 TemperatureHumidityPressure
High84 °F (Oct 2, 3:50 pm)93% (Oct 7, 4:50 am)30.30 "Hg (Oct 7, 4:50 am)
Low37 °F (Oct 7, 6:50 am)13% (Oct 1, 5:50 pm)29.77 "Hg (Oct 6, 5:50 am)
Average61 °F51%30.06 "Hg
* Reported Sep 30 7:50 am — Oct 15 7:50 am, Ankara. Weather by CustomWeather, © 2019

Note: Actual official high and low records may vary slightly from our data, if they occured in-between our weather recording intervals... More about our weather records

Advertising

Ankara Weather History for the Previous 24 Hours

Scroll right to see more
 ConditionsComfort  
Time TempWeatherWind HumidityBarometerVisibility
7:50 am
Tue, Oct 15
45 °FSunny.No wind66%30.21 "Hg10 mi
6:50 am43 °FClear.No wind71%30.21 "Hg10 mi
5:50 am45 °FClear.No wind66%30.21 "Hg10 mi
4:50 am45 °FClear.No wind61%30.21 "Hg10 mi
3:50 am46 °FClear.No wind57%30.21 "Hg10 mi
1:50 am48 °FClear.No wind58%30.21 "Hg10 mi
12:50 am50 °FClear.No wind54%30.21 "Hg10 mi
11:50 pm
Mon, Oct 14
52 °FClear.No wind50%30.21 "Hg10 mi
10:50 pm55 °FClear.1 mph44%30.21 "Hg10 mi
9:50 pm55 °FClear.No wind44%30.21 "Hg10 mi
8:50 pm59 °FClear.No wind42%30.18 "Hg10 mi
7:50 pm63 °FClear.No wind34%30.18 "Hg10 mi
6:50 pm68 °FClear.No wind28%30.18 "Hg10 mi
5:50 pm77 °FSunny.3 mph18%30.18 "Hg10 mi
4:50 pm81 °FSunny.5 mph16%30.18 "Hg10 mi
3:50 pm81 °FSunny.3 mph15%30.18 "Hg10 mi
2:50 pm81 °FSunny.3 mph15%30.21 "Hg10 mi
1:50 pm77 °FSunny.2 mph15%30.24 "Hg10 mi
12:50 pm75 °FSunny.3 mph18%30.24 "Hg10 mi
11:50 am72 °FSunny.2 mph20%30.27 "Hg10 mi
10:50 am64 °FPassing clouds.3 mph24%30.30 "HgN/A
9:50 am59 °FSunny.2 mph29%30.30 "Hg10 mi
Weather by CustomWeather, © 2019

See weather overview